Regional Weather Roundup
Issued by NWS

Home | Current Version | Previous Version | Graphics & Text | Print | Product List | Glossary On
Versions: 1 2 3 4 5 6 7 8 9 10 11 12 13 14 15 16 17 18 19 20 21 22 23 24 25 26 27 28 29 30 31 32 33 34 35 36 37 38 39 40 41 42 43 44 45 46 47 48 49 50
000
ASUS43 KFSD 172002
RWRSD

WEATHER ROUNDUP FOR SOUTH DAKOTA
NATIONAL WEATHER SERVICE SIOUX FALLS SD
300 PM CDT TUE OCT 17 2017

NOTE: "FAIR" INDICATES FEW OR NO CLOUDS BELOW 12,000 FEET WITH NO
SIGNIFICANT WEATHER AND/OR OBSTRUCTIONS TO VISIBILITY.


SDZ001>005-009-010-012>017-172100-
NORTHWEST AND NORTH CENTRAL SOUTH DAKOTA

CITY           SKY/WX    TMP DP  RH WIND       PRES   REMARKS
BUFFALO          N/A     77  19  11 W13G23    29.83F
FAITH            N/A     80  20  10 SW13G24   29.88F
MOBRIDGE       SUNNY     81  28  14 SW14      29.83F
$$

SDZ012>016-024>037-041>051-057-063-072>074-172100-
SOUTHWEST AND SOUTH CENTRAL SOUTH DAKOTA

CITY           SKY/WX    TMP DP  RH WIND       PRES   REMARKS
RAPID CTY ARPT SUNNY     76  29  17 S14       29.92F
PIERRE         SUNNY     75  38  26 SE7       29.89F
CUSTER         SUNNY     66  16  14 SW6       30.04F
ELLSWORTH AFB  SUNNY     77  27  16 S12       29.92F
PHILIP         SUNNY     79  34  19 S12       29.90F
PINE RIDGE     SUNNY     76  22  13 W8        29.97F
SPEARFISH      FAIR      73  23  15 CALM      29.95F
WINNER         FAIR      81  35  19 SW13      29.94F
$$

SDZ004>011-016>023-039-040-172100-
NORTHEAST SOUTH DAKOTA

CITY           SKY/WX    TMP DP  RH WIND       PRES   REMARKS
ABERDEEN       SUNNY     78  36  21 SW17      29.86F
WATERTOWN      SUNNY     73  40  30 S17       29.91F
BROOKINGS      SUNNY     75  36  24 SW14      29.95F
SISSETON         N/A     76  37  24 SW22      29.86F
$$

SDZ017-020-022-023-036>040-048>070-172100-
SOUTHEAST SOUTH DAKOTA

CITY           SKY/WX    TMP DP  RH WIND       PRES   REMARKS
SIOUX FALLS    SUNNY     76  44  32 SW3       29.97F
HURON          SUNNY     78  40  25 MISG      29.92F
CHAMBERLAIN    SUNNY     81  40  23 SW13      29.93F
MITCHELL       SUNNY     79  35  20 SW13      29.94F
YANKTON        SUNNY     77  36  22 SW7       29.98F
$$

ABBREVIATIONS USED IN REMARKS
   TC - TEMPERATURE IN CELSIUS
  WCI - WIND CHILL INDEX
   HX - HEAT INDEX
  VSB - VISIBILITY




USA.gov is the U.S. government's official web portal to all federal, state and local government web resources and services.